Regional Weather Roundup
Issued by NWS

Home | Current Version | Previous Version | Text Only | Print | Product List | Glossary Off
Versions: 1 2 3 4 5 6 7 8 9 10 11 12 13 14 15 16 17 18 19 20 21 22 23 24 25 26 27 28 29 30 31 32 33 34 35 36 37 38 39 40 41 42 43 44 45 46 47 48 49 50

000
ASUS43 KDMX 051207
RWRIA

WEATHER ROUNDUP FOR IOWA
NATIONAL WEATHER SERVICE DES MOINES IA
600 AM CST THU MAR 05 2015

NOTE: "FAIR" INDICATES FEW OR NO CLOUDS BELOW 12,000 FEET WITH NO
SIGNIFICANT WEATHER AND/OR OBSTRUCTIONS TO VISIBILITY.

* - THESE STATIONS ARE NOT NWS STATIONS...THUS NOT UNDER NWS
QUALITY CONTROL.  THEY ALSO DO NOT REPORT WEATHER SUCH
AS PRECIPITATION OR FOG.

IAZ001>003-012>014-020>022-031>034-043>046-051300-
   NORTHWEST IOWA

CITY           SKY/WX    TMP DP  RH WIND       PRES   REMARKS
CARROLL *      CLEAR     -6 -13  71 W7        30.50R WCI -20
CHEROKEE *     CLEAR     -9 -13  84 CALM      30.49R
DENISON *      CLEAR     -6 -11  77 CALM      30.49R
LE MARS *      CLEAR     -6  -9  84 CALM      30.51R
ORANGE CITY *  CLEAR     -4  -9  77 CALM      30.46R
SHELDON *      CLEAR     -9 -15  77 CALM      30.45R
SIOUX CITY     CLEAR     -2  -7  79 CALM      30.51R
6HR MIN TEMP:  -3; 6HR MAX TEMP:   2;

SPENCER          N/A     -9 -15  75 W6        30.47R WCI -22
6HR MIN TEMP: -10; 6HR MAX TEMP:  -4;

STORM LAKE *   CLEAR     -6 -13  71 W5        30.46R WCI -17
$$

IAZ055>058-069>071-079>083-090>094-051300-
   SOUTHWEST IOWA

CITY           SKY/WX    TMP DP  RH WIND       PRES   REMARKS
ATLANTIC *     CLEAR      0  -8  71 NW5       30.51R WCI -10
AUDUBON *      CLEAR     -2  -9  71 CALM      30.49R
CLARINDA *     CLEAR      0  -4  85 CALM      30.56R
COUNCIL BLFS * CLEAR      3  -6  66 CALM      30.50R
CRESTON *      CLEAR      0  -8  71 NW5       30.50R WCI -10
HARLAN  *      CLEAR     -2  -8  78 CALM      30.54R
LAMONI         CLEAR      2  -3  80 NW7       30.50R WCI -11
6HR MIN TEMP:   2; 6HR MAX TEMP:  12;

RED OAK *      CLEAR      1  -4  78 CALM      30.54R
SHENANDOAH *   CLEAR      1  -4  78 CALM      30.55R
$$

IAZ047>049-059>061-072>074-084-051300-
   CENTRAL IOWA

CITY           SKY/WX    TMP DP  RH WIND       PRES   REMARKS
AMES           CLEAR     -3 -10  72 NW6       30.51R WCI -15
6HR MIN TEMP:  -5; 6HR MAX TEMP:   5;

ANKENY *       PTCLDY     1  -9  60 NW7       30.53R WCI -11
CHARITON *     CLOUDY     3  -6  66 NE5       30.51R WCI  -6
DES MOINES     PTCLDY     3  -7  63 N3        30.52R
6HR MIN TEMP:   3; 6HR MAX TEMP:  11; 6HR PCP: TRACE;

GRINNELL*      CLEAR     -4  -8  84 NW3       30.50R
KNOXVILLE *    PTCLDY     0  -9  65 NW5       30.51R WCI -10
MARSHALLTOWN   CLEAR    -10 -14  82 W6        30.49R WCI -23
6HR MIN TEMP: -11; 6HR MAX TEMP:   1;

PELLA *        PTCLDY     0  -4  85 N6        30.53R WCI -12
PERRY *          N/A     -2  -6  84 CALM      30.51R
$$

IAZ004>006-015-016-023>025-035-036-051300-
   NORTH CENTRAL IOWA

CITY           SKY/WX    TMP DP  RH WIND       PRES   REMARKS
ALGONA *       CLEAR     -4  -6  92 NW6       30.48R WCI -16
CLARION *      CLEAR     -6 -11  77 NW5       30.48R WCI -17
ESTHERVILLE    CLEAR     -7 -12  79 W6        30.45R WCI -20
6HR MIN TEMP:  -7; 6HR MAX TEMP:  -3;

FORT DODGE *   CLEAR     -8 -17  65 CALM      30.49R
MASON CITY     CLEAR     -9 -14  78 W6        30.47R WCI -22
6HR MIN TEMP: -12; 6HR MAX TEMP:  -4;

FOREST CITY *  CLEAR     -9 -17  70 CALM      30.46R
IOWA FALLS *     N/A    -11 -17  77 W5        30.48R WCI -23
$$

IAZ007>011-017>019-026>030-037>042-050>054-066-051300-
   NORTHEAST IOWA

CITY           SKY/WX    TMP DP  RH WIND       PRES   REMARKS
CEDAR RAPIDS   CLEAR     -8 -12  83 NW9       30.47R WCI -25
6HR MIN TEMP:  -9; 6HR MAX TEMP:   1;

CHARLES CITY * CLEAR    -11 -17  77 W6        30.46R WCI -25
CLINTON *      CLEAR    -11 -18  70 W8        30.47R WCI -28
DECORAH *      CLEAR     -8 -15  71 NW5       30.42R WCI -19
DUBUQUE        CLEAR     -6 -12  75 N8        30.41R WCI -21
6HR MIN TEMP:  -6; 6HR MAX TEMP:   3;

MONTICELLO *   CLEAR     -9 -17  70 CALM      30.46R
OELWEIN *      CLEAR    -13 -20  70 NW6       30.45R WCI -27
WATERLOO         N/A     -8 -12  83 W5        30.48R WCI -19
6HR MIN TEMP: -11; 6HR MAX TEMP:   0;

$$

IAZ064-065-067-068-078-051300-
   EAST CENTRAL IOWA

CITY           SKY/WX    TMP DP  RH WIND       PRES   REMARKS
DAVENPORT      CLEAR     -6 -13  71 NW7       30.47R WCI -20
6HR MIN TEMP:  -6; 6HR MAX TEMP:   7;

IOWA CITY      CLEAR      0  -8  69 NW9       30.51R WCI -15
6HR MIN TEMP:   0; 6HR MAX TEMP:  10;

MT. PLEASANT * CLEAR      1  -6  70 NW6       30.51R WCI -10
MUSCATINE *    CLEAR      1  -6  71 W8        30.52R WCI -12
QUAD CITIES    CLEAR      2  -7  66 W8        30.48R WCI -12
6HR MIN TEMP:   2; 6HR MAX TEMP:  12;

$$

IAZ062-063-075>077-085>089-095>099-051300-
   SOUTHEAST IOWA

CITY           SKY/WX    TMP DP  RH WIND       PRES   REMARKS
BURLINGTON     MOCLDY     4  -5  66 NW7       30.49R WCI  -8
6HR MIN TEMP:   4; 6HR MAX TEMP:  15;

FAIRFIELD *    CLOUDY     1  -8  66 NW6       30.52R WCI -10
FORT MADISON * MOCLDY     3  -2  78 N6        30.50R WCI  -8
KEOKUK *       CLOUDY     7   1  78 N7        30.50R WCI  -5
OSKALOOSA *      N/A      1  -5  75 NW7       30.52R WCI -12
CENTERVILLE *  CLOUDY     7   0  72 N6        30.51R WCI  -3
OTTUMWA        CLEAR      1  -6  72 NW5       30.51R WCI  -9
6HR MIN TEMP:   0; 6HR MAX TEMP:  11;

WASHINGTON *   CLEAR      1  -4  78 NW8       30.51R WCI -12
$$

ABBREVIATIONS USED IN REMARKS
   TC - TEMPERATURES IN CELSIUS
  WCI - WIND CHILL INDEX
   HX - HEAT INDEX
  VSB - VISIBILITY
$$




USA.gov is the U.S. government's official web portal to all federal, state and local government web resources and services.